Flag Weather past 2 weeks in Farmington, New Mexico, U.S.A.

Now
32 °F

Clear.


Feels Like: 26 °F
Forecast: 26 / 57 °F
Wind: 7 mph from East

Location: Four Corners Regional Airport

Current Time: Nov 28, 2014 at 10:21:24 PM

Latest Report: Nov 28, 2014 at 9:53 PM


Visibility: 10 mi

Pressure: 30.08 "Hg

Humidity: 45%

Dew point: 13 °F

Location of FarmingtonLocation

Historic Weather in Farmington — Graph

°F

Farmington temperature yesterday

Maximum temperature yesterday: 56 °F (at 2:53 PM)
Minimum temperature yesterday: 25 °F (at 6:53 AM)
Average temperature yesterday: 37 °F

Past Weeks' High & Low Weather Summary

 TemperatureHumidityPressure
High61 °F (Nov 28, 2:53 PM)100% (Nov 14, 10:59 PM)30.55 "Hg (Nov 14, 10:59 PM)
Low13 °F (Nov 17, 6:53 AM)14% (Nov 25, 2:53 PM)29.75 "Hg (Nov 23, 2:53 AM)
Average35 °F54%30.19 "Hg
* Reported Nov 13 8:53 PM — Nov 28 8:53 PM, Farmington, Weather by CustomWeather, © 2014

Note: Actual official high and low records may vary slightly from our data, if they occured in-between our weather recording intervals... More about our weather records

Advertising

Farmington weather history for previous 24 hours

 ConditionsComfort  
Time TempWeatherWind HumidityBarometerVisibility
8:53 PM
Nov 28
34 °FClear.10 mph42%30.09 "Hg10 mi
7:53 PM36 °FClear.8 mph38%30.09 "Hg10 mi
6:53 PM38 °FClear.7 mph36%30.11 "Hg10 mi
5:53 PM45 °FClear.5 mph28%30.09 "Hg10 mi
4:53 PM57 °FSunny.No wind17%30.04 "Hg10 mi
3:53 PM61 °FSunny.No wind16%30.04 "Hg10 mi
2:53 PM61 °FSunny.3 mph15%30.06 "Hg10 mi
1:53 PM58 °FSunny.No wind19%30.09 "Hg10 mi
12:53 PM55 °FSunny.5 mph25%30.14 "Hg10 mi
11:53 AM53 °FSunny.6 mph28%30.19 "Hg10 mi
10:53 AM46 °FSunny.7 mph42%30.26 "Hg10 mi
9:53 AM38 °FSunny.7 mph55%30.30 "Hg10 mi
8:53 AM32 °FSunny.8 mph64%30.33 "Hg10 mi
7:53 AM29 °FSunny.9 mph69%30.33 "Hg10 mi
6:53 AM26 °FClear.10 mph74%30.33 "Hg10 mi
5:53 AM26 °FClear.9 mph74%30.28 "Hg10 mi
4:53 AM28 °FClear.10 mph72%30.28 "Hg10 mi
3:53 AM28 °FClear.10 mph72%30.28 "Hg10 mi
2:53 AM28 °FClear.7 mph72%30.29 "Hg10 mi
1:53 AM28 °FClear.7 mph69%30.29 "Hg10 mi
12:53 AM29 °FClear.7 mph69%30.31 "Hg10 mi
11:53 PM
Nov 27
27 °FClear.6 mph66%30.34 "Hg10 mi
10:53 PM30 °FClear.7 mph61%30.36 "Hg10 mi
Weather by CustomWeather, © 2014

See weather overviewHow to use our weather pages